Terminal Aerodrome Forecast
Issued by NWS

Home | Current Version | Previous Version | Text Only | Print | Product List | Glossary On
Versions: 1 2 3 4 5 6 7 8 9 10 11 12 13 14
891
FTUS45 KRIW 111442 AAA
TAFCPR
TAF AMD
KCPR 111442Z 1115/1212 22020G30KT P6SM BKN250
     FM111800 23015G25KT P6SM BKN250
     FM112300 22013KT P6SM SCT120 BKN250
     FM120200 22008KT P6SM BKN120=

USA.gov is the U.S. government's official web portal to all federal, state and local government web resources and services.